TimeEDT,TemperatureF,Dew PointF,Humidity,Sea Level PressureIn,VisibilityMPH,Wind Direction,Wind SpeedMPH,Gust SpeedMPH,PrecipitationIn,Events,Conditions,WindDirDegrees,DateUTC
12:21 AM,46.4,42.8,87,30.00,1.8,Calm,Calm,-,N/A,,Clear,0,2013-09-25 04:21:00
12:25 AM,44.6,42.8,93,30.00,0.8,Calm,Calm,-,N/A,,Clear,0,2013-09-25 04:25:00
12:39 AM,44.6,42.8,93,30.00,1.2,Calm,Calm,-,N/A,,Clear,0,2013-09-25 04:39:00
12:42 AM,46.4,42.8,87,30.00,3.0,Calm,Calm,-,N/A,,Clear,0,2013-09-25 04:42:00
12:53 AM,46.0,43.0,89,30.00,10.0,Calm,Calm,-,N/A,,Clear,0,2013-09-25 04:53:00
1:53 AM,45.0,43.0,93,29.99,7.0,Calm,Calm,-,N/A,,Clear,0,2013-09-25 05:53:00
2:20 AM,44.6,42.8,93,29.99,10.0,Calm,Calm,-,N/A,,Scattered Clouds,0,2013-09-25 06:20:00
2:32 AM,44.6,42.8,93,29.98,10.0,Calm,Calm,-,N/A,,Mostly Cloudy,0,2013-09-25 06:32:00
2:53 AM,43.0,41.0,93,29.98,10.0,Calm,Calm,-,N/A,,Scattered Clouds,0,2013-09-25 06:53:00
3:16 AM,44.6,41.0,87,29.97,9.0,Calm,Calm,-,N/A,,Mostly Cloudy,0,2013-09-25 07:16:00
3:40 AM,42.8,41.0,93,29.97,10.0,Calm,Calm,-,N/A,,Scattered Clouds,0,2013-09-25 07:40:00
3:53 AM,43.0,39.9,89,29.97,10.0,Calm,Calm,-,N/A,,Clear,0,2013-09-25 07:53:00
4:53 AM,42.1,39.9,92,29.96,7.0,Calm,Calm,-,N/A,,Clear,0,2013-09-25 08:53:00
5:53 AM,44.1,41.0,89,29.96,10.0,Calm,Calm,-,N/A,,Clear,0,2013-09-25 09:53:00
6:53 AM,43.0,41.0,93,29.96,6.0,Calm,Calm,-,N/A,,Clear,0,2013-09-25 10:53:00
7:44 AM,42.8,41.0,93,29.96,2.5,Calm,Calm,-,N/A,,Scattered Clouds,0,2013-09-25 11:44:00
7:48 AM,42.8,41.0,93,29.96,1.5,Calm,Calm,-,N/A,,Mostly Cloudy,0,2013-09-25 11:48:00
7:53 AM,44.1,42.1,93,29.96,1.0,Calm,Calm,-,N/A,,Mist,0,2013-09-25 11:53:00
8:01 AM,44.6,42.8,93,29.96,0.5,Calm,Calm,-,N/A,Fog,Fog,0,2013-09-25 12:01:00
8:07 AM,44.6,42.8,93,29.96,1.2,Calm,Calm,-,N/A,,Overcast,0,2013-09-25 12:07:00
8:11 AM,44.6,42.8,93,29.96,3.0,Calm,Calm,-,N/A,,Mostly Cloudy,0,2013-09-25 12:11:00
8:20 AM,44.6,42.8,93,29.96,1.8,Calm,Calm,-,N/A,,Mostly Cloudy,0,2013-09-25 12:20:00
8:25 AM,46.4,44.6,93,29.97,0.8,Calm,Calm,-,N/A,,Mist,0,2013-09-25 12:25:00
8:48 AM,46.4,44.6,93,29.97,1.2,Calm,Calm,-,N/A,,Overcast,0,2013-09-25 12:48:00
8:53 AM,46.9,45.0,93,29.98,1.8,Calm,Calm,-,N/A,,Overcast,0,2013-09-25 12:53:00
9:07 AM,46.4,44.6,93,29.97,2.5,Calm,Calm,-,N/A,,Mostly Cloudy,0,2013-09-25 13:07:00
9:15 AM,48.2,46.4,93,29.97,3.0,Calm,Calm,-,N/A,,Scattered Clouds,0,2013-09-25 13:15:00
9:53 AM,50.0,48.0,93,29.99,4.0,Calm,Calm,-,N/A,,Clear,0,2013-09-25 13:53:00
10:53 AM,57.0,50.0,77,29.98,10.0,WNW,4.6,-,N/A,,Clear,300,2013-09-25 14:53:00
11:53 AM,64.0,51.1,63,29.97,10.0,Variable,3.5,-,N/A,,Clear,0,2013-09-25 15:53:00
12:53 PM,73.0,51.1,46,29.94,10.0,Variable,6.9,-,N/A,,Clear,0,2013-09-25 16:53:00
1:53 PM,75.9,50.0,40,29.93,10.0,Variable,3.5,-,N/A,,Clear,0,2013-09-25 17:53:00
2:53 PM,75.9,48.9,38,29.91,10.0,East,4.6,-,N/A,,Clear,80,2013-09-25 18:53:00
3:53 PM,75.0,48.9,40,29.90,10.0,East,5.8,-,N/A,,Clear,80,2013-09-25 19:53:00
4:53 PM,73.0,51.1,46,29.90,10.0,SSE,3.5,-,N/A,,Clear,150,2013-09-25 20:53:00
5:53 PM,72.0,55.9,57,29.90,10.0,Calm,Calm,-,N/A,,Clear,0,2013-09-25 21:53:00
6:53 PM,66.9,57.9,73,29.92,10.0,Calm,Calm,-,N/A,,Clear,0,2013-09-25 22:53:00
7:53 PM,63.0,57.0,81,29.93,10.0,Calm,Calm,-,N/A,,Clear,0,2013-09-25 23:53:00
8:53 PM,59.0,55.9,90,29.94,10.0,Calm,Calm,-,N/A,,Clear,0,2013-09-26 00:53:00
9:53 PM,55.9,54.0,93,29.95,9.0,Calm,Calm,-,N/A,,Clear,0,2013-09-26 01:53:00
10:53 PM,55.0,53.1,93,29.95,10.0,Calm,Calm,-,N/A,,Clear,0,2013-09-26 02:53:00
11:53 PM,54.0,51.1,90,29.96,10.0,Calm,Calm,-,N/A,,Clear,0,2013-09-26 03:53:00